FW1792 Weather Reports


time (UTC)temp
C
wind
direction
speed
KPH
gust
KPH
rain 1hr
cm
rain 24hr
cm
rain mn
cm
humidity
%
barometer
mb
20260906080428 25 41 0.0 17.7 0.00 0.00 0.00 60 1022.3
20260906075928 25 41 0.0 17.7 0.00 0.00 0.00 61 1022.3
20260906075426 25 16 6.4 16.1 0.00 0.00 0.00 61 1022.4
20260906074930 25 27 1.6 16.1 0.00 0.00 0.00 61 1022.3
20260906074600 25 13 0.0 8.0 0.00 0.00 0.00 61 1022.4
20260906074445 25 17 1.6 16.1 0.00 0.00 0.00 62 1022.4
20260906073016 25 30 3.2 11.3 0.00 0.00 0.00 61 1022.4
20260906072513 25 28 0.0 0.0 0.00 0.00 0.00 62 1022.3
20260906072153 24 66 0.0 0.0 0.00 0.00 0.00 64 1022.1
20260906072035 24 34 0.0 0.0 0.00 0.00 0.00 63 1022.2
20260906070959 24 73 0.0 0.0 0.00 0.00 0.00 64 1022.1
20260906070455 23 109 0.0 0.0 0.00 0.00 0.00 66 1022.0
20260906065953 23 99 0.0 0.0 0.00 0.00 0.00 67 1022.0
20260906065452 23 82 0.0 0.0 0.00 0.00 0.00 67 1022.0
20260906064951 23 55 0.0 11.3 0.00 0.00 0.00 68 1022.0
20260906064449 23 87 0.0 11.3 0.00 0.00 0.00 67 1022.0
20260906064151 23 75 0.0 0.0 0.00 0.00 0.00 68 1021.9
20260906064011 23 100 0.0 0.0 0.00 0.00 0.00 67 1021.9
20260906062947 23 37 0.0 9.7 0.00 0.00 0.00 67 1021.8
20260906062632 22 32 1.6 11.3 0.00 0.00 0.00 69 1021.8
20260906062512 22 52 0.0 11.3 0.00 0.00 0.00 68 1021.8
20260906061447 22 66 0.0 11.3 0.00 0.00 0.00 69 1021.7
20260906060943 22 79 3.2 11.3 0.00 0.00 0.00 69 1021.8
20260906060442 22 65 0.0 14.5 0.00 0.00 0.00 70 1021.7
20260906055945 22 61 4.8 14.5 0.00 0.00 0.00 70 1021.6
20260906055447 22 61 8.0 14.5 0.00 0.00 0.00 69 1021.5
20260906054944 22 61 8.0 14.5 0.00 0.00 0.00 68 1021.5
20260906054442 22 82 6.4 8.0 0.00 0.00 0.00 68 1021.5
20260906053943 22 52 4.8 6.4 0.00 0.00 0.00 68 1021.4
20260906053442 22 54 3.2 9.7 0.00 0.00 0.00 68 1021.4
20260906052942 22 55 6.4 11.3 0.00 0.00 0.00 68 1021.2
20260906052440 22 51 6.4 11.3 0.00 0.00 0.00 68 1021.2
20260906051938 22 48 4.8 8.0 0.00 0.00 0.00 68 1021.2
20260906051639 22 17 3.2 9.7 0.00 0.00 0.00 69 1021.0
20260906051503 22 16 3.2 6.4 0.00 0.00 0.00 68 1021.1
20260906050435 22 8 4.8 9.7 0.00 0.00 0.00 69 1021.1
20260906050047 22 39 4.8 8.0 0.00 0.00 0.00 69 1021.0
20260906050025 22 49 0.0 8.0 0.00 0.00 0.00 69 1020.9
20260906045936 22 52 4.8 9.7 0.00 0.00 0.00 69 1021.0
20260906045619 22 31 6.4 14.5 0.00 0.00 0.00 69 1021.0
20260906045254 22 52 4.8 8.0 0.00 0.00 0.00 69 1020.9
20260906045040 22 37 8.0 14.5 0.00 0.00 0.00 69 1021.0
20260906042932 22 30 6.4 8.0 0.00 0.00 0.00 69 1020.8
20260906042841 22 71 6.4 11.3 0.00 0.00 0.00 68 1020.7
20260906042552 22 56 4.8 8.0 0.00 0.00 0.00 69 1020.8
20260906042150 22 0 6.4 8.0 0.00 0.00 0.00 69 1020.7
20260906042009 22 62 6.4 11.3 0.00 0.00 0.00 68 1020.8
20260906040721 22 0 6.4 11.3 0.00 0.00 0.00 70 1020.6
20260906040709 22 34 4.8 9.7 0.00 0.00 0.00 71 1020.7
20260906040511 22 25 4.8 11.3 0.00 0.00 0.00 69 1020.6
20260906034934 22 13 4.8 9.7 0.00 0.00 0.00 71 1020.7
20260906034712 21 59 3.2 8.0 0.00 0.00 0.00 73 1020.5
20260906034707 21 75 4.8 8.0 0.00 0.00 0.00 73 1020.6
20260906034510 21 337 4.8 8.0 0.00 0.00 0.00 72 1020.5
20260906033156 21 87 4.8 9.7 0.00 0.00 0.00 72 1020.5
20260906033138 22 99 4.8 9.7 0.00 0.00 0.00 71 1020.5
20260906032956 21 80 4.8 8.0 0.00 0.00 0.00 73 1020.5
20260906031421 22 80 3.2 8.0 0.00 0.00 0.00 71 1020.3
20260906030921 22 87 3.2 14.5 0.00 0.00 0.00 71 1020.3
20260906030420 21 45 6.4 14.5 0.00 0.00 0.00 72 1020.2
20260906025922 21 30 6.4 9.7 0.00 0.00 0.00 73 1020.3
20260906025421 21 39 4.8 6.4 0.00 0.00 0.00 73 1020.2
20260906024919 21 66 4.8 8.0 0.00 0.00 0.00 73 1020.1
20260906024612 21 69 4.8 8.0 0.00 0.00 0.00 73 1020.1
20260906024444 21 72 4.8 8.0 0.00 0.00 0.00 73 1020.2
20260906023414 21 63 4.8 8.0 0.00 0.00 0.00 73 1020.2
20260906022917 21 49 4.8 9.7 0.00 0.00 0.00 73 1020.2
20260906022412 21 51 4.8 9.7 0.00 0.00 0.00 73 1020.2
20260906021914 21 54 4.8 9.7 0.00 0.00 0.00 73 1020.1
20260906021411 21 44 3.2 9.7 0.00 0.00 0.00 73 1020.0
20260906020911 21 69 4.8 9.7 0.00 0.00 0.00 73 1020.0
20260906020412 21 72 4.8 9.7 0.00 0.00 0.00 73 1020.0
20260906015915 21 76 4.8 9.7 0.00 0.00 0.00 73 1019.9
20260906015409 21 65 3.2 8.0 0.00 0.00 0.00 73 1019.9
20260906014909 21 69 4.8 9.7 0.00 0.00 0.00 73 1019.9
20260906014409 21 78 6.4 9.7 0.00 0.00 0.00 73 1019.9
20260906013904 21 80 4.8 8.0 0.00 0.00 0.00 73 1019.9
20260906013542 22 62 4.8 8.0 0.00 0.00 0.00 73 1020.0
20260906013426 21 75 4.8 8.0 0.00 0.00 0.00 73 1019.9
20260906012720 21 75 4.8 9.7 0.00 0.00 0.00 73 1020.0
20260906012652 21 78 6.4 9.7 0.00 0.00 0.00 73 1019.8
20260906012446 22 58 4.8 8.0 0.00 0.00 0.00 73 1019.9
20260906011101 21 63 4.8 11.3 0.00 0.00 0.00 73 1019.9
20260906010924 21 76 0.0 9.7 0.00 0.00 0.00 73 1019.9
20260906005851 22 78 6.4 11.3 0.00 0.00 0.00 73 1019.9
20260906005349 22 72 0.0 8.0 0.00 0.00 0.00 73 1019.9
20260906004849 22 63 1.6 8.0 0.00 0.00 0.00 73 1019.8
20260906004347 22 58 4.8 8.0 0.00 0.00 0.00 73 1019.8
20260906003847 22 65 4.8 8.0 0.00 0.00 0.00 73 1019.8
20260906003344 22 72 6.4 8.0 0.00 0.00 0.00 73 1019.8
20260906002843 22 79 0.0 3.2 0.00 0.00 0.00 72 1019.8
20260906002344 22 65 0.0 0.0 0.00 0.00 0.00 71 1019.8
20260906002031 22 8 0.0 4.8 0.00 0.00 0.00 71 1019.8
20260906001910 22 8 0.0 0.0 0.00 0.00 0.00 71 1019.8
20260906000839 22 8 0.0 4.8 0.00 0.00 0.00 71 1019.8
20260906000333 22 8 0.0 4.8 0.00 0.00 0.00 71 1019.7
20260905235832 22 10 3.2 8.0 0.00 0.00 0.00 72 1019.8
20260905235330 22 28 1.6 8.0 0.00 0.00 0.00 72 1019.8
20260905234830 22 0 1.6 4.8 0.00 0.00 0.00 72 1019.8
20260905234328 22 0 1.6 4.8 0.00 0.00 0.00 72 1019.8
20260905233831 22 0 0.0 0.0 0.00 0.00 0.00 72 1019.7
20260905233649 23 0 1.6 3.2 0.00 0.00 0.00 71 1019.7
20260905233418 22 0 0.0 0.0 0.00 0.00 0.00 71 1019.7
20260905232844 23 0 0.0 3.2 0.00 0.00 0.00 71 1019.8
20260905231824 22 7 0.0 0.0 0.00 0.00 0.00 72 1019.7
20260905231325 22 7 0.0 0.0 0.00 0.00 0.00 72 1019.7
20260905230824 22 7 0.0 0.0 0.00 0.00 0.00 72 1019.7
20260905230727 22 34 0.0 0.0 0.00 0.00 0.00 72 1019.7
20260905230709 23 34 0.0 0.0 0.00 0.00 0.00 71 1019.6
20260905230703 23 38 0.0 0.0 0.00 0.00 0.00 71 1019.5
20260905225605 23 34 0.0 0.0 0.00 0.00 0.00 72 1019.7
20260905224507 23 34 0.0 0.0 0.00 0.00 0.00 71 1019.5
20260905223439 23 38 0.0 4.8 0.00 0.00 0.00 71 1019.4
20260905222936 23 42 0.0 4.8 0.00 0.00 0.00 71 1019.3
20260905222434 23 44 0.0 0.0 0.00 0.00 0.00 71 1019.3
20260905221935 23 17 0.0 0.0 0.00 0.00 0.00 71 1019.3
20260905221433 23 13 0.0 0.0 0.00 0.00 0.00 71 1019.4
20260905220927 23 18 0.0 0.0 0.00 0.00 0.00 71 1019.2
20260905220424 23 20 0.0 0.0 0.00 0.00 0.00 70 1019.3
20260905215925 23 20 0.0 0.0 0.00 0.00 0.00 70 1019.1
20260905215422 23 20 0.0 0.0 0.00 0.00 0.00 70 1019.1
20260905214923 23 20 0.0 0.0 0.00 0.00 0.00 69 1019.1
20260905214424 23 20 0.0 0.0 0.00 0.00 0.00 69 1019.1
20260905213922 23 20 0.0 0.0 0.00 0.00 0.00 68 1019.1
20260905213730 23 20 0.0 0.0 0.00 0.00 0.00 67 1019.0
20260905213705 23 18 0.0 0.0 0.00 0.00 0.00 67 1018.9
20260905213500 23 20 0.0 0.0 0.00 0.00 0.00 68 1019.0
20260905211917 23 18 0.0 0.0 0.00 0.00 0.00 67 1019.0
20260905211415 23 23 0.0 0.0 0.00 0.00 0.00 67 1019.0
20260905210913 23 23 0.0 0.0 0.00 0.00 0.00 67 1019.0
20260905210558 23 23 0.0 0.0 0.00 0.00 0.00 67 1019.0
20260905210432 23 23 0.0 0.0 0.00 0.00 0.00 67 1019.0
20260905205408 23 23 0.0 0.0 0.00 0.00 0.00 66 1019.0
20260905204905 23 23 0.0 0.0 0.00 0.00 0.00 66 1018.9
20260905204406 23 23 0.0 0.0 0.00 0.00 0.00 67 1018.9
20260905203903 23 21 0.0 3.2 0.00 0.00 0.00 67 1018.9
20260905203403 23 38 0.0 3.2 0.00 0.00 0.00 67 1018.9
20260905202904 23 38 0.0 0.0 0.00 0.00 0.00 67 1018.9
20260905202400 23 38 0.0 0.0 0.00 0.00 0.00 67 1019.0
20260905201901 23 38 0.0 0.0 0.00 0.00 0.00 67 1018.9
20260905201355 24 38 0.0 0.0 0.00 0.00 0.00 66 1018.8
20260905200856 24 38 0.0 0.0 0.00 0.00 0.00 65 1018.8
20260905200355 24 38 0.0 4.8 0.00 0.00 0.00 65 1018.7
20260905195856 24 38 0.0 4.8 0.00 0.00 0.00 65 1018.7
20260905195353 24 38 0.0 4.8 0.00 0.00 0.00 67 1018.7
20260905194853 24 155 0.0 0.0 0.00 0.00 0.00 68 1018.7
20260905194530 24 155 0.0 0.0 0.00 0.00 0.00 68 1018.6
20260905194414 24 155 0.0 0.0 0.00 0.00 0.00 68 1018.5
20260905193345 24 155 0.0 0.0 0.00 0.00 0.00 69 1018.6
20260905192840 24 155 0.0 0.0 0.00 0.00 0.00 69 1018.4
20260905192338 24 155 0.0 0.0 0.00 0.00 0.00 69 1018.4
20260905191838 24 155 0.0 0.0 0.00 0.00 0.00 69 1018.2
20260905191334 24 155 0.0 0.0 0.00 0.00 0.00 69 1018.2
20260905190833 25 80 0.0 0.0 0.00 0.00 0.00 68 1018.1
20260905190459 25 80 0.0 0.0 0.00 0.00 0.00 65 1018.2
20260905190356 25 80 0.0 0.0 0.00 0.00 0.00 67 1018.1
20260905185328 26 80 0.0 0.0 0.00 0.00 0.00 63 1018.1
20260905184825 26 80 0.0 0.0 0.00 0.00 0.00 62 1018.1
20260905184325 26 80 0.0 9.7 0.00 0.00 0.00 62 1018.0
20260905184143 26 183 0.0 0.0 0.00 0.00 0.00 62 1017.5
20260905183912 26 80 0.0 9.7 0.00 0.00 0.00 63 1017.8
20260905183340 26 85 0.0 9.7 0.00 0.00 0.00 63 1017.7
20260905182441 26 183 0.0 0.0 0.00 0.00 0.00 60 1017.2
20260905182334 26 183 0.0 0.0 0.00 0.00 0.00 61 1017.5
20260905181322 26 183 0.0 0.0 0.00 0.00 0.00 59 1017.2
20260905180958 27 183 0.0 0.0 0.00 0.00 0.00 58 1017.0
20260905180842 27 183 0.0 0.0 0.00 0.00 0.00 60 1017.1
20260905175819 27 183 0.0 0.0 0.00 0.00 0.00 58 1017.0
20260905175748 27 183 0.0 0.0 0.00 0.00 0.00 54 1016.6
20260905175729 27 183 0.0 0.0 0.00 0.00 0.00 55 1016.8
20260905175716 27 183 0.0 0.0 0.00 0.00 0.00 55 1016.7
20260905175435 27 183 0.0 0.0 0.00 0.00 0.00 55 1016.8
20260905174348 27 183 0.0 0.0 0.00 0.00 0.00 55 1016.7
20260905173237 28 183 0.0 0.0 0.00 0.00 0.00 53 1016.3
20260905173203 28 183 0.0 0.0 0.00 0.00 0.00 54 1016.4
20260905172915 28 183 0.0 0.0 0.00 0.00 0.00 52 1016.6
20260905171828 28 183 0.0 0.0 0.00 0.00 0.00 52 1016.4
20260905170804 28 183 0.0 0.0 0.00 0.00 0.00 53 1016.3
20260905170301 28 176 0.0 0.0 0.00 0.00 0.00 54 1016.3
20260905165755 28 176 0.0 0.0 0.00 0.00 0.00 54 1016.3
20260905165255 28 176 0.0 0.0 0.00 0.00 0.00 55 1016.2
20260905164754 29 176 0.0 0.0 0.00 0.00 0.00 51 1016.2
20260905164255 30 175 0.0 0.0 0.00 0.00 0.00 49 1016.2
20260905163753 30 172 0.0 0.0 0.00 0.00 0.00 49 1016.1
20260905163250 30 172 0.0 0.0 0.00 0.00 0.00 47 1016.1
20260905162944 30 157 0.0 0.0 0.00 0.00 0.00 43 1015.9
20260905162815 30 157 0.0 0.0 0.00 0.00 0.00 44 1016.1
20260905161744 30 157 0.0 0.0 0.00 0.00 0.00 43 1015.8
20260905161244 30 157 0.0 0.0 0.00 0.00 0.00 42 1015.9
20260905160742 30 157 0.0 0.0 0.00 0.00 0.00 43 1015.8
20260905160240 30 157 0.0 0.0 0.00 0.00 0.00 43 1015.8
20260905155738 30 157 0.0 0.0 0.00 0.00 0.00 43 1015.8
20260905155237 30 157 0.0 0.0 0.00 0.00 0.00 42 1015.8
20260905154735 30 157 0.0 0.0 0.00 0.00 0.00 42 1015.8
20260905154238 30 157 0.0 0.0 0.00 0.00 0.00 42 1015.8
20260905153734 30 157 0.0 0.0 0.00 0.00 0.00 41 1015.8
20260905153233 30 157 0.0 0.0 0.00 0.00 0.00 41 1015.7
20260905152736 31 157 0.0 0.0 0.00 0.00 0.00 42 1015.7
20260905152233 30 157 0.0 0.0 0.00 0.00 0.00 41 1015.6
20260905151735 31 161 0.0 0.0 0.00 0.00 0.00 40 1015.6
20260905151234 31 166 0.0 0.0 0.00 0.00 0.00 42 1015.7
20260905150733 31 161 0.0 0.0 0.00 0.00 0.00 40 1015.7
20260905150234 31 161 0.0 0.0 0.00 0.00 0.00 40 1015.7
20260905150128 30 96 0.0 0.0 0.00 0.00 0.00 41 1015.7
20260905150112 30 261 0.0 0.0 0.00 0.00 0.00 41 1015.7
20260905145833 31 261 0.0 0.0 0.00 0.00 0.00 40 1015.7
20260905144743 30 96 0.0 0.0 0.00 0.00 0.00 41 1015.7
20260905143717 30 96 0.0 0.0 0.00 0.00 0.00 41 1015.7
20260905142821 30 96 0.0 0.0 0.00 0.00 0.00 41 1015.8
20260905142321 30 96 0.0 0.0 0.00 0.00 0.00 42 1015.8
20260905141818 30 97 0.0 0.0 0.00 0.00 0.00 41 1015.8
20260905141313 29 97 0.0 0.0 0.00 0.00 0.00 42 1015.7
20260905140814 29 102 0.0 0.0 0.00 0.00 0.00 41 1015.7
20260905140311 30 99 0.0 0.0 0.00 0.00 0.00 42 1015.7
20260905135813 30 93 0.0 0.0 0.00 0.00 0.00 40 1015.8
20260905135311 30 140 0.0 0.0 0.00 0.00 0.00 39 1015.9
20260905134805 30 158 0.0 0.0 0.00 0.00 0.00 40 1016.0
20260905134557 30 73 0.0 0.0 0.00 0.00 0.00 41 1015.9
20260905134359 30 85 0.0 0.0 0.00 0.00 0.00 40 1015.9
20260905133828 30 144 0.0 0.0 0.00 0.00 0.00 40 1015.9
20260905132756 30 89 0.0 0.0 0.00 0.00 0.00 41 1015.8
20260905132257 30 93 0.0 0.0 0.00 0.00 0.00 41 1015.8
20260905131752 30 164 0.0 1.6 0.00 0.00 0.00 41 1015.9
20260905131254 30 200 0.0 1.6 0.00 0.00 0.00 42 1015.9
20260905130754 30 195 0.0 1.6 0.00 0.00 0.00 42 1015.9
20260905130250 30 78 0.0 0.0 0.00 0.00 0.00 43 1015.9
20260905125751 30 100 0.0 0.0 0.00 0.00 0.00 43 1015.9
20260905125249 30 37 0.0 0.0 0.00 0.00 0.00 42 1015.9
20260905124746 30 110 0.0 8.0 0.00 0.00 0.00 42 1016.0
20260905124240 30 69 0.0 8.0 0.00 0.00 0.00 41 1016.1
20260905123944 29 149 0.0 9.7 0.00 0.00 0.00 43 1016.1
20260905123803 29 48 0.0 9.7 0.00 0.00 0.00 40 1016.1
20260905122937 29 41 0.0 0.0 0.00 0.00 0.00 41 1016.3
20260905122758 29 106 1.6 8.0 0.00 0.00 0.00 42 1016.3
20260905121857 30 75 0.0 6.4 0.00 0.00 0.00 43 1016.2
20260905121755 29 47 0.0 6.4 0.00 0.00 0.00 42 1016.2
20260905120734 29 85 0.0 0.0 0.00 0.00 0.00 45 1016.3
20260905120233 29 35 0.0 0.0 0.00 0.00 0.00 45 1016.3
20260905115729 29 73 0.0 0.0 0.00 0.00 0.00 46 1016.3
20260905115227 29 59 0.0 0.0 0.00 0.00 0.00 46 1016.5
20260905114851 28 66 0.0 0.0 0.00 0.00 0.00 47 1016.3
20260905114742 29 25 0.0 0.0 0.00 0.00 0.00 46 1016.4
20260905113724 28 83 0.0 0.0 0.00 0.00 0.00 46 1016.5
20260905113223 29 87 0.0 1.6 0.00 0.00 0.00 46 1016.4
20260905112725 29 114 0.0 1.6 0.00 0.00 0.00 46 1016.5
20260905112356 29 90 0.0 0.0 0.00 0.00 0.00 47 1016.6
20260905112241 29 76 0.0 0.0 0.00 0.00 0.00 46 1016.6
20260905111224 28 32 0.0 0.0 0.00 0.00 0.00 47 1016.5
20260905110720 28 30 0.0 0.0 0.00 0.00 0.00 48 1016.5
20260905110217 28 34 0.0 0.0 0.00 0.00 0.00 49 1016.6
20260905105718 28 31 0.0 0.0 0.00 0.00 0.00 48 1016.5
20260905105450 28 31 0.0 0.0 0.00 0.00 0.00 47 1016.7
20260905105442 28 34 0.0 3.2 0.00 0.00 0.00 48 1016.7
20260905105256 28 31 0.0 0.0 0.00 0.00 0.00 46 1016.6
20260905103708 28 147 0.0 3.2 0.00 0.00 0.00 51 1016.7
20260905103208 28 141 0.0 1.6 0.00 0.00 0.00 52 1016.7
20260905102707 28 78 0.0 1.6 0.00 0.00 0.00 55 1016.6
20260905102206 27 190 0.0 1.6 0.00 0.00 0.00 55 1016.7
20260905101708 27 68 0.0 0.0 0.00 0.00 0.00 53 1016.8
20260905101206 27 85 0.0 1.6 0.00 0.00 0.00 56 1016.8
20260905100828 27 51 0.0 1.6 0.00 0.00 0.00 54 1016.7
20260905100717 27 55 0.0 1.6 0.00 0.00 0.00 54 1016.7
20260905095855 26 59 0.0 0.0 0.00 0.00 0.00 60 1016.8
20260905095845 26 54 0.0 0.0 0.00 0.00 0.00 61 1016.8
20260905095739 27 97 0.0 1.6 0.00 0.00 0.00 59 1016.8
20260905094154 26 54 0.0 0.0 0.00 0.00 0.00 61 1016.7
20260905093656 26 48 0.0 0.0 0.00 0.00 0.00 60 1016.7
20260905093155 26 44 0.0 0.0 0.00 0.00 0.00 61 1016.8
20260905092653 26 44 0.0 0.0 0.00 0.00 0.00 61 1016.8
20260905092146 26 37 0.0 0.0 0.00 0.00 0.00 61 1016.8
20260905091649 26 62 0.0 0.0 0.00 0.00 0.00 61 1016.7
20260905091146 26 75 0.0 0.0 0.00 0.00 0.00 61 1016.6
20260905090846 26 351 0.0 0.0 0.00 0.00 0.00 63 1016.6
20260905090711 26 44 0.0 0.0 0.00 0.00 0.00 63 1016.7
20260905085642 26 347 0.0 0.0 0.00 0.00 0.00 65 1016.6
20260905085138 26 324 0.0 0.0 0.00 0.00 0.00 65 1016.7
20260905084640 26 329 0.0 0.0 0.00 0.00 0.00 67 1016.5
20260905084325 25 23 0.0 0.0 0.00 0.00 0.00 67 1016.3
20260905084205 25 18 0.0 0.0 0.00 0.00 0.00 68 1016.4
20260905083134 25 34 0.0 0.0 0.00 0.00 0.00 68 1016.4
20260905082633 25 334 0.0 4.8 0.00 0.00 0.00 68 1016.4
20260905082133 25 351 0.0 8.0 0.00 0.00 0.00 68 1016.3
20260905081632 25 336 3.2 8.0 0.00 0.00 0.00 68 1016.4
20260905081131 25 340 0.0 6.4 0.00 0.00 0.00 68 1016.4